Regional Weather Roundup
Issued by NWS

Home | Current Version | Previous Version | Graphics & Text | Print | Product List | Glossary On
Versions: 1 2 3 4 5 6 7 8 9 10 11 12 13 14 15 16 17 18 19 20 21 22 23 24 25 26 27 28 29 30 31 32 33 34 35 36 37 38 39 40 41 42 43 44 45 46 47 48 49 50
000
ASUS43 KLSX 300307
RWRMO

WEATHER SUMMARY FOR MISSOURI
NATIONAL WEATHER SERVICE SPRINGFIELD MO
1000 PM CDT SUN MAR 29 2015

NOTE: "FAIR" INDICATES FEW OR NO CLOUDS BELOW 12,000 FEET WITH NO
       SIGNIFICANT WEATHER AND/OR OBSTRUCTIONS TO VISIBILITY.
       CURRENT SKY AND/OR WEATHER CONDITIONS ARE NOT AVAILABLE FOR
       CHILLICOTHE AND FARMINGTON.

MOZ001>031-035>038-043-044-053-054-300400-
...NORTHERN AND WESTERN MISSOURI...

CITY           SKY/WX    TMP DP  RH WIND       PRES   REMARKS
KANSAS CTY INT CLEAR     53  35  50 NW6       30.15R
KANSAS C DTWN  CLEAR     52  36  54 CALM      30.15R
LEE`S SUMMIT   CLEAR     52  36  54 N6        30.15R
ST JOSEPH      CLEAR     45  32  60 CALM      30.15R
CHILLICOTHE      N/A     51  35  54 VRB5      30.12R
KIRKSVILLE     CLEAR     46  36  68 W6        30.08R

$$
MOZ066>068-077>081-088>096-101>105-300400-
...SOUTHWEST MISSOURI...

CITY           SKY/WX    TMP DP  RH WIND       PRES   REMARKS
SPRINGFIELD    CLEAR     50  42  74 CALM      30.12R
JOPLIN         CLEAR     51  41  68 W5        30.15R

$$
MOZ032>034-039>042-045>050-055>058-069>072-300400-
...CENTRAL MISSOURI...

CITY           SKY/WX    TMP DP  RH WIND       PRES   REMARKS
COLUMBIA       CLEAR     52  40  63 NW12      30.10R
JEFFERSON CITY CLEAR     54  41  61 NW5       30.11R
ROLLA          MOCLDY    49  40  71 SW9       30.08R
SEDALIA        CLEAR     51  39  63 NW5       30.13R
WHITEMAN AFB   CLEAR     51  39  63 NW6       30.13R
WARRENSBURG    CLEAR     50  36  57 NW6       30.15R
OSAGE BEACH    CLEAR     52  39  62 W5        30.11R

$$
MOZ051-052-059>065-300400-
...EAST CENTRAL MISSOURI...

CITY           SKY/WX    TMP DP  RH WIND       PRES   REMARKS
ST LOUIS INTL  MOCLDY    52  39  61 W10       30.06R
SPIRIT OF STL  CLOUDY    45  39  79 W5        30.06R
ST CHARLES     MOCLDY    48  39  71 W6        30.05R

$$
MOZ072>076-082>087-097>100-106>115-300400-
...SOUTH CENTRAL AND SOUTHEAST MISSOURI...

CITY           SKY/WX    TMP DP  RH WIND       PRES   REMARKS
CAPE GIRARDEAU CLOUDY    53  48  83 NW5       30.08S
FARMINGTON     MOCLDY    52  39  62 W5        30.11R
POPLAR BLUFF   CLOUDY    54  47  77 CALM      30.08R
WEST PLAINS    MOCLDY    48  40  73 W3        30.10R

$$


USA.gov is the U.S. government's official web portal to all federal, state and local government web resources and services.